Location: Unspecified
(0.0000°N, 0.0000°E)
Time: 19:44:53
(UTC+00:00)

deb r/b Ablestar - Pass Details

Date: 23 April 2026
Orbit: 907 x 1192 km, 66.9° (Epoch: 12 May)

Event Time Altitude Azimuth Distance (km) Brightness Sun altitude
Rises 19:27:25 0° 9° (N) 4,048 ? -21.7°
Reaches altitude 10° 19:31:05 10° 25° (NNE) 3,060 ? -22.6°
Enters shadow 19:33:48 17° 46° (NE) 2,544 ? -23.3°
